This is the latest recevied weather packets stored in our database for station/object NA9VY-8. If no packets are shown the sender has not sent any weather packets the latest 10 day(s).
| Time | Temp. | Humidity | Pressure | Rain* | Wind** | Luminosity | Snow |
|---|---|---|---|---|---|---|---|
| 1777813767 | 10° C | 58% | 1027.5 hPa | 0 mm | - | 250 W/m² | - |
| 1777813464 | 10° C | 60% | 1027.7 hPa | 0 mm | - | 261 W/m² | - |
| 1777813161 | 10° C | 61% | 1027.5 hPa | 0 mm | - | 226 W/m² | - |
| 1777812859 | 9.44° C | 64% | 1027.8 hPa | 0 mm | - | 193 W/m² | - |
| 1777812555 | 9.44° C | 65% | 1027.8 hPa | 0 mm | - | 192 W/m² | - |
| 1777812253 | 8.89° C | 66% | 1027.8 hPa | 0 mm | - | 159 W/m² | - |
| 1777811951 | 8.33° C | 64% | 1027.8 hPa | 0 mm | - | 147 W/m² | - |
| 1777811650 | 8.33° C | 65% | 1027.7 hPa | 0 mm | - | 154 W/m² | - |
| 1777811345 | 7.78° C | 67% | 1027.6 hPa | 0 mm | - | 141 W/m² | - |
| 1777811043 | 7.22° C | 67% | 1027.6 hPa | 0 mm | - | 137 W/m² | - |
| 1777810739 | 7.22° C | 68% | 1027.6 hPa | 0 mm | - | 77 W/m² | - |
| 1777810436 | 7.22° C | 68% | 1027.8 hPa | 0 mm | - | 78 W/m² | - |
| 1777810132 | 7.22° C | 69% | 1028 hPa | 0 mm | - | 73 W/m² | - |
| 1777809829 | 6.67° C | 72% | 1027.8 hPa | 0 mm | - | 64 W/m² | - |
| 1777809527 | 6.11° C | 72% | 1027.6 hPa | 0 mm | - | 57 W/m² | - |
| 1777809225 | 6.11° C | 72% | 1027.8 hPa | 0 mm | - | 66 W/m² | - |
| 1777808923 | 5.56° C | 73% | 1027.6 hPa | 0 mm | - | 55 W/m² | - |
| 1777808619 | 5° C | 78% | 1027.5 hPa | 0 mm | - | 46 W/m² | - |
| 1777808316 | 5° C | 76% | 1027.5 hPa | 0 mm | - | 40 W/m² | - |
| 1777808015 | 4.44° C | 81% | 1027.4 hPa | 0 mm | - | 34 W/m² | - |
| 1777807711 | 3.89° C | 82% | 1027.5 hPa | 0 mm | - | 31 W/m² | - |
| 1777807410 | 3.89° C | 84% | 1027.3 hPa | 0 mm | - | 27 W/m² | - |
| 1777807110 | 2.78° C | 84% | 1027.3 hPa | 0 mm | - | 16 W/m² | - |
| 1777806808 | 2.22° C | 86% | 1027.3 hPa | 0 mm | - | 12 W/m² | - |
| 1777806503 | 2.78° C | 86% | 1027.3 hPa | 0 mm | - | 9 W/m² | - |
* Rain latest hour (hover to see other rain measurements)
** Current wind speed in m/s (hover to see current wind gust speed)